Location: Knobs
(40.8333°S, 175.2333°E)
Time: 01:50:09
(UTC+00:00)

USA 229 DEB - Pass Details

Date: 12 June 2024
Orbit: 889 x 1323 km, 63.4° (Epoch: 21 July)

Event Time Altitude Azimuth Distance (km) Brightness Sun altitude
Exits shadow 16:51:45 75° 47° (NE) 987 3.5 -31.1°
Drops below altitude 10° 16:57:11 10° 34° (NE) 2,590 6.2 -30.1°
Sets 16:59:37 0° 34° (NE) 3,503 6.9 -29.6°
